Theta_e
349 349 343 339 338 338 334 330 328 329 330 333 335 337 340 340 340 340 340 340 339 336 334 332 330 332 330 326 322 317 316 316 317 318 318 316 316 316 315 313 313 314 311 310 309 309 309 309 309 310 310 311 314 318 322 328 331 332 331 331 331 331 332 333 334 333 334 334 334 335 335 336 336 336 336 337 337 337 337 337 337 336 336 335 336
349 347 343 339 338 337 334 330 327 328 329 331 334 336 339 339 340 339 340 341 339 336 334 333 333 334 331 329 327 322 317 315 315 316 317 317 318 320 319 316 313 312 311 309 309 309 309 309 309 309 310 311 314 316 318 323 329 331 331 332 331 331 331 332 333 333 333 332 334 335 335 336 337 337 337 337 337 337 337 337 337 337 336 335 335
349 345 341 339 338 337 333 329 327 328 327 329 331 335 339 338 339 339 340 340 339 337 335 334 334 335 333 331 330 326 320 315 315 315 317 319 320 323 322 316 313 311 311 309 309 311 309 309 309 309 309 310 313 315 317 320 325 330 330 330 330 330 330 332 332 332 331 332 334 336 336 336 337 337 337 337 337 337 337 337 337 337 337 336 335
348 344 340 339 338 336 332 328 327 327 326 327 329 333 338 338 339 339 340 340 339 337 336 335 335 335 334 333 331 329 324 317 314 314 317 321 325 328 323 317 316 314 311 309 310 311 310 310 310 309 309 309 311 314 317 319 322 327 329 330 330 329 330 331 331 331 331 333 336 337 337 337 336 336 337 336 336 336 336 337 337 336 336 335 335
347 344 340 339 338 335 331 327 327 325 325 326 327 332 336 338 338 338 339 340 339 338 337 336 336 335 334 334 332 330 327 320 316 314 318 323 329 330 322 320 325 323 314 310 312 311 311 311 310 309 309 309 310 312 315 318 320 324 328 329 329 329 329 329 330 331 332 335 337 337 338 337 336 336 336 336 336 336 336 336 336 336 335 334 333
346 344 340 338 337 333 328 326 326 324 324 324 326 330 334 336 337 338 339 339 339 338 337 337 336 335 335 334 332 331 327 322 318 314 317 321 326 324 319 325 333 332 319 312 312 312 313 312 312 311 308 308 308 310 312 315 318 321 325 328 329 328 328 328 329 330 331 332 334 336 338 338 337 337 337 336 336 336 336 335 333 333 332 332 330
345 344 340 337 336 330 326 326 325 324 323 324 324 326 329 331 334 337 338 339 339 338 337 337 336 335 335 334 332 330 326 323 319 316 317 320 321 319 323 331 335 330 320 317 317 315 315 314 315 313 309 308 308 309 311 312 315 318 322 325 326 327 326 328 330 331 330 331 332 334 336 338 338 337 337 337 336 334 334 332 330 328 327 327 324
345 343 341 339 337 329 325 325 324 325 325 325 324 323 323 324 328 333 337 338 338 338 337 337 336 335 335 334 331 328 325 322 319 317 320 323 323 323 330 334 332 328 324 324 322 319 318 317 317 314 310 308 308 308 309 311 312 315 318 321 325 325 325 328 331 331 331 331 332 332 333 335 336 336 336 335 335 334 333 332 331 329 326 322 320
344 343 342 341 336 327 326 325 325 327 328 328 326 323 322 321 323 329 336 338 338 338 337 336 336 335 334 331 328 326 324 321 322 322 325 328 326 326 330 332 331 332 331 330 327 324 322 320 319 316 313 310 308 308 308 309 310 313 315 318 322 323 323 328 331 332 332 332 332 333 332 333 334 335 335 335 335 334 332 329 327 326 323 319 317
345 343 343 342 334 326 326 326 326 328 329 329 328 325 322 321 322 327 334 337 337 338 337 336 337 335 331 328 326 327 328 328 331 330 328 330 329 327 327 331 333 335 334 333 331 329 326 324 321 318 316 314 311 309 308 308 309 311 312 315 319 322 325 328 331 332 332 331 332 332 331 331 330 331 334 334 334 333 328 323 319 317 316 315 314
345 343 343 342 333 326 326 327 327 329 330 330 329 326 324 322 321 325 330 334 336 337 337 336 337 333 327 327 328 331 334 335 335 332 332 332 329 327 329 333 334 334 334 334 332 330 328 324 321 319 318 316 314 312 309 308 309 310 312 316 322 327 330 330 330 330 329 329 330 330 329 327 324 324 328 330 329 327 323 318 314 313 312 312 311
345 344 344 341 332 327 326 327 328 329 331 331 330 328 326 324 322 322 324 328 332 335 336 337 334 330 328 330 333 336 337 338 332 329 332 331 326 328 332 334 335 334 334 333 332 329 327 323 322 321 319 318 316 314 312 309 309 310 314 318 326 331 332 332 332 331 332 331 330 329 327 322 317 315 318 320 320 317 316 314 312 312 310 309 309
345 345 344 338 330 327 326 328 328 329 331 331 331 330 330 328 324 321 320 322 326 331 334 334 330 329 332 334 337 339 338 337 331 326 326 326 325 329 333 334 334 333 333 332 330 328 326 324 324 323 322 321 318 316 314 312 310 310 314 319 327 331 332 333 333 334 334 333 331 328 321 315 312 312 313 315 313 312 312 311 311 310 309 308 308
345 346 344 336 331 328 326 328 328 329 330 331 332 331 331 331 328 323 319 319 321 327 330 328 328 332 336 337 338 338 338 336 333 328 325 325 326 330 335 334 331 332 333 331 329 327 327 326 326 325 324 324 321 318 315 313 311 310 313 317 324 329 331 333 333 333 333 332 329 322 314 311 312 311 311 312 311 311 311 310 310 309 309 308 309
345 346 342 335 333 329 326 328 329 329 330 330 331 331 332 332 330 323 318 317 317 322 326 326 330 335 338 338 339 337 337 336 335 332 328 327 325 328 334 332 331 333 333 330 328 328 328 327 328 327 326 327 325 320 317 315 313 312 313 319 325 330 332 332 332 332 333 332 327 318 312 311 311 310 310 310 310 310 309 309 309 309 309 309 309
346 346 342 337 333 330 326 327 328 329 329 330 331 331 332 332 331 324 317 317 316 320 325 329 333 336 338 339 338 335 335 335 334 332 330 330 325 325 331 332 333 333 331 329 328 328 328 329 329 329 328 328 327 323 320 317 315 314 315 321 328 330 332 332 333 333 333 332 328 318 310 310 310 310 310 309 309 309 309 309 309 309 309 309 309
347 345 343 340 335 330 327 328 329 329 329 330 330 331 331 331 331 323 317 316 316 322 327 331 333 334 336 337 336 333 334 334 334 332 331 331 326 324 330 333 333 331 329 328 328 328 328 329 330 329 329 329 328 326 322 319 316 316 316 319 325 329 332 333 334 334 334 333 330 321 309 308 309 309 309 309 309 309 309 309 309 309 309 309 309
346 345 344 342 338 333 330 331 331 331 330 331 330 331 332 331 331 322 317 318 320 324 328 331 333 333 334 335 334 332 333 334 333 332 331 331 327 325 330 332 331 330 329 327 327 328 328 329 329 329 330 329 329 328 324 321 317 316 316 317 321 326 330 332 333 334 334 333 329 317 308 309 309 309 309 309 309 309 309 309 309 309 309 309 309
345 345 344 342 341 338 336 333 332 332 333 333 331 331 332 331 330 321 317 320 323 327 329 331 333 333 333 332 332 331 332 333 332 332 331 331 329 326 328 330 330 329 329 327 326 327 327 328 329 329 329 329 329 329 326 323 319 317 317 319 324 328 331 332 333 333 333 332 323 310 308 309 308 309 309 308 309 309 309 309 309 309 309 309 309
345 345 344 343 342 340 340 336 334 334 334 334 332 332 332 331 327 319 318 322 325 328 330 332 332 332 332 332 332 331 332 332 330 330 331 331 331 330 329 328 329 327 328 328 326 327 327 327 329 330 330 329 329 329 328 325 322 319 319 322 325 330 333 332 332 332 331 326 315 308 309 308 308 308 308 308 308 309 309 309 309 309 309 309 309
344 344 344 344 343 341 342 340 337 336 336 336 334 334 332 327 322 318 321 322 326 329 330 331 332 332 333 332 332 331 331 330 329 329 331 331 330 332 331 329 328 325 325 328 328 327 327 327 328 330 330 330 329 329 329 327 325 322 321 323 324 330 333 332 332 332 331 325 312 309 310 308 308 307 308 308 308 309 309 308 308 308 308 308 308
344 344 343 343 343 342 342 341 339 337 338 337 336 336 331 326 321 322 327 327 329 330 330 331 331 332 332 331 329 329 331 329 330 330 330 331 330 331 332 331 328 323 323 327 328 328 328 329 328 329 330 329 330 329 328 328 327 324 322 324 328 332 333 333 332 331 332 326 314 309 310 309 308 307 307 307 307 308 308 308 308 308 308 308 308
344 344 343 343 343 342 341 342 340 339 340 339 337 336 333 330 324 326 330 330 331 332 331 331 332 332 331 331 328 329 332 329 330 332 331 331 331 330 330 328 324 321 321 323 325 327 328 330 329 329 330 330 332 331 329 329 328 326 324 327 331 332 331 332 332 331 330 322 313 311 311 310 309 308 307 307 307 307 307 307 307 307 307 307 308
344 344 344 344 343 343 342 342 341 340 341 340 338 337 336 335 329 328 331 331 333 333 333 332 333 333 330 331 329 330 332 329 330 332 331 332 331 328 325 322 322 321 320 320 323 326 328 329 330 330 330 329 332 332 332 331 329 327 327 331 333 331 332 332 331 332 330 321 315 314 312 311 310 309 308 307 307 306 306 306 306 306 306 307 306
344 344 344 344 343 343 341 342 342 341 341 340 338 338 338 337 332 330 332 333 334 334 333 332 334 333 331 332 331 330 331 330 331 331 332 332 331 326 321 319 320 320 320 320 321 323 325 327 329 330 330 330 331 332 332 333 331 329 332 334 333 332 333 332 331 331 329 323 319 317 314 314 312 311 309 308 308 307 306 306 306 306 305 306 305
344 344 344 343 344 342 341 342 342 341 340 339 339 338 337 337 335 333 333 335 333 333 332 331 333 332 332 333 331 330 331 331 332 331 332 331 329 327 325 323 321 320 324 327 324 322 326 328 327 326 329 331 331 332 332 333 330 329 333 335 333 333 333 332 331 330 328 323 321 321 319 318 316 315 312 310 309 307 307 306 306 306 305 305 305
344 343 342 342 343 342 342 342 341 341 339 338 338 337 337 338 337 335 336 336 332 332 332 331 333 332 332 333 331 331 331 331 331 331 330 329 329 331 331 329 328 326 328 332 329 328 331 330 326 322 326 331 332 332 332 332 329 329 333 334 334 333 333 332 331 330 329 325 321 322 321 321 320 318 317 314 310 308 308 307 306 306 305 305 305
342 341 340 340 341 342 341 341 340 339 338 337 338 337 337 337 335 333 334 334 331 333 333 332 334 333 333 333 332 332 331 329 329 329 329 330 331 334 333 332 332 329 326 328 327 328 329 328 326 325 328 331 332 330 331 332 331 332 333 333 334 333 333 333 332 331 330 328 324 323 322 322 322 322 321 317 313 310 308 308 307 307 306 305 305
341 339 339 339 340 341 340 339 338 337 337 338 338 337 337 336 334 332 333 334 332 333 334 333 334 334 333 333 332 332 331 328 328 329 331 333 333 334 334 332 333 330 327 329 329 328 328 329 330 330 330 330 331 329 328 331 331 334 333 332 333 333 333 333 332 330 330 329 328 325 322 321 322 323 322 319 315 312 310 309 308 307 306 305 305
340 338 338 337 337 337 338 337 337 337 337 338 338 336 336 335 333 333 334 334 333 333 334 333 333 334 334 333 332 331 331 329 330 332 333 333 331 331 331 329 330 330 330 332 332 331 331 332 331 331 331 330 331 329 329 331 331 333 333 332 333 333 333 333 332 330 328 330 330 327 322 319 320 320 321 320 317 313 310 309 308 307 307 306 305
339 338 337 336 334 334 337 337 336 337 337 337 337 335 335 334 333 333 334 334 333 332 332 332 333 334 334 333 331 330 332 331 332 334 333 332 329 329 329 328 330 329 329 329 328 331 332 332 333 333 332 331 331 329 330 332 332 332 332 332 332 332 333 332 332 329 327 329 331 331 326 322 320 319 318 318 319 315 311 310 308 307 306 306 307
339 337 337 336 334 333 337 337 335 336 337 336 336 335 335 336 334 333 334 336 335 332 331 331 332 332 332 331 329 330 333 334 335 335 334 333 331 332 332 332 333 331 329 326 325 329 331 331 331 333 333 333 332 330 331 331 331 331 331 332 331 331 332 332 332 330 328 327 329 331 330 327 325 323 318 316 320 318 312 310 308 308 309 311 312
339 338 337 337 334 332 335 336 335 335 336 335 336 336 335 337 334 332 334 336 335 334 333 332 331 330 329 329 329 332 334 334 333 333 335 335 333 333 333 333 334 333 331 328 327 330 333 331 330 332 333 333 333 332 332 331 331 331 330 331 330 331 332 331 331 331 329 328 329 330 331 331 329 328 321 314 317 316 310 309 310 313 315 317 318
339 338 338 337 334 332 333 333 333 335 335 335 336 335 335 336 333 332 334 335 335 335 334 334 331 330 329 330 332 335 335 332 329 331 335 336 334 334 334 334 333 330 328 327 330 333 334 333 331 333 332 332 333 332 332 331 332 332 331 331 331 331 331 330 331 331 330 329 329 329 329 331 330 330 326 316 314 311 308 310 313 318 320 320 321
340 338 337 336 334 332 332 331 331 334 334 334 335 335 335 335 332 333 334 334 334 334 334 334 333 333 333 333 334 334 334 332 329 329 334 335 335 335 335 335 330 326 327 328 332 334 334 334 333 333 332 332 333 331 331 331 331 332 331 331 332 332 330 328 329 329 330 330 330 329 329 329 329 330 328 323 319 315 311 311 315 320 322 323 323
339 338 336 335 335 334 333 332 331 333 334 334 335 335 334 333 331 332 334 333 334 335 334 334 333 334 335 335 334 333 334 334 332 329 331 334 335 334 335 334 328 328 330 329 332 334 333 334 333 333 332 332 332 331 330 330 331 332 331 332 331 330 329 327 326 328 330 330 329 329 329 328 327 329 329 328 326 322 317 316 317 321 323 324 325
338 337 336 335 335 335 333 332 333 334 334 334 335 334 333 333 331 333 334 334 335 335 334 333 333 334 334 335 334 332 334 335 334 330 330 334 334 333 334 332 328 330 329 328 331 333 333 333 333 333 332 332 331 332 331 331 332 332 332 332 329 327 327 326 326 328 329 328 329 329 329 327 325 328 328 328 327 323 320 319 320 322 323 325 326
337 335 336 335 334 335 332 331 333 334 335 335 335 333 332 333 332 334 334 333 334 334 333 333 333 334 333 335 334 333 335 335 335 333 331 333 334 334 334 329 329 330 327 328 333 333 333 333 333 332 332 332 332 331 331 332 333 333 332 330 327 327 326 325 326 328 327 328 329 329 328 326 326 327 326 327 327 323 320 320 322 323 325 326 327
336 334 334 332 333 335 333 330 332 334 334 334 334 333 332 332 332 334 334 332 333 333 333 333 333 334 333 334 334 333 335 335 335 334 331 333 334 335 334 329 330 331 328 331 333 333 334 333 332 331 330 330 332 331 331 332 332 332 331 328 327 327 327 327 326 327 328 328 328 328 327 326 326 326 325 326 326 323 321 322 324 325 326 327 327
335 331 331 330 332 335 333 331 332 333 333 333 333 332 332 333 332 334 334 332 332 331 332 333 332 333 334 334 332 332 334 333 333 332 329 332 334 335 334 330 331 332 331 332 333 333 334 332 331 331 329 330 331 331 331 332 331 330 330 329 328 328 328 328 328 327 328 328 327 327 327 326 326 326 325 325 325 324 323 324 326 325 326 326 325
332 328 330 329 330 334 332 330 330 332 333 333 332 331 332 334 333 334 334 332 331 331 332 332 332 332 333 335 332 331 333 330 331 333 329 330 333 334 332 329 332 333 331 333 334 333 331 330 328 329 330 331 331 331 331 330 330 329 329 328 329 329 329 329 329 328 328 328 327 327 326 326 326 326 325 325 325 325 325 326 326 326 326 326 325
329 329 331 327 329 334 332 330 329 331 333 333 333 331 332 334 333 334 333 332 331 331 332 332 332 332 333 335 334 333 332 329 330 332 329 328 331 332 331 329 332 333 330 330 332 330 328 328 328 328 330 331 331 331 331 330 329 329 329 328 329 329 329 329 329 329 328 328 327 326 326 326 325 325 325 325 325 325 326 327 326 327 326 326 326
327 330 333 328 331 334 333 333 332 331 333 334 334 332 333 334 333 333 332 332 331 330 332 332 333 332 333 335 334 332 332 330 329 328 328 330 330 330 331 330 330 330 329 329 330 330 328 328 329 330 330 330 331 331 330 330 328 329 330 329 330 329 329 328 328 328 328 328 327 326 326 326 326 325 325 325 325 325 327 327 326 326 326 326 326
328 330 333 331 331 333 333 334 334 333 334 334 334 333 333 333 332 333 332 332 332 331 333 333 333 334 333 334 334 331 329 330 330 328 329 330 328 328 330 330 329 328 329 329 329 330 329 329 329 331 330 329 330 331 330 329 328 329 330 329 329 329 329 329 328 328 328 328 327 327 326 326 325 325 326 326 326 326 326 326 325 326 326 326 326
328 330 332 332 332 333 333 335 335 335 334 334 333 333 333 332 332 332 331 331 332 332 333 333 334 335 333 334 334 329 327 329 330 329 330 330 327 327 328 329 329 328 329 329 330 330 330 330 330 329 329 329 331 331 330 328 328 329 329 329 328 328 329 330 329 328 328 329 328 327 327 326 326 325 326 326 326 326 326 325 326 326 325 325 325
329 330 332 333 334 334 335 336 336 335 335 334 334 332 333 333 333 331 330 330 331 331 333 333 333 334 332 333 333 331 328 329 329 330 330 329 328 327 327 329 329 328 328 329 331 331 330 332 331 329 329 330 331 331 330 328 328 328 329 329 328 329 329 329 329 328 328 328 327 327 327 326 326 326 326 326 326 326 326 326 326 325 326 326 326
332 333 333 333 333 334 336 336 336 335 335 334 334 333 334 334 332 330 327 328 329 330 333 333 333 333 332 334 333 330 329 328 329 330 330 329 329 328 328 329 329 328 328 329 330 330 330 332 331 330 329 329 330 331 330 329 327 327 329 329 328 328 329 329 329 329 329 328 327 327 327 326 326 326 326 327 327 326 326 325 325 324 324 325 324
335 334 334 334 334 334 335 336 335 335 335 335 334 334 334 334 332 331 328 328 329 330 331 332 333 333 334 335 332 329 329 329 329 330 330 329 328 328 329 329 329 330 329 329 330 330 331 331 330 329 329 328 329 330 329 330 329 328 329 328 327 328 328 328 328 328 328 328 327 327 326 326 326 326 327 327 327 326 325 324 323 323 323 322 322
335 334 333 334 334 333 334 335 336 335 335 335 335 335 335 334 333 332 331 330 330 331 330 330 331 333 333 332 330 329 330 329 329 329 329 328 326 326 327 327 328 329 329 329 329 328 330 331 329 327 328 328 329 329 329 330 330 329 329 328 328 328 328 328 327 326 327 328 328 327 327 327 326 326 327 327 326 325 323 323 322 321 320 320 320
335 335 335 335 334 334 334 335 336 336 336 336 336 335 335 334 333 333 332 331 331 331 331 331 333 333 331 329 330 331 329 327 327 327 326 325 323 323 324 324 325 326 327 329 329 328 329 330 328 327 327 327 328 328 328 329 329 330 330 329 329 329 328 329 329 329 328 327 328 327 327 327 327 326 326 326 325 323 322 321 319 318 317 316 316
334 335 336 335 335 335 335 335 336 337 336 336 336 336 335 334 333 332 332 331 330 329 330 332 333 332 330 330 331 331 330 328 325 324 327 325 321 322 322 322 323 322 325 329 329 328 328 328 327 326 326 327 328 328 327 327 328 330 330 328 327 328 328 328 329 329 327 326 327 328 327 327 326 326 325 324 323 322 320 318 317 316 314 314 312
Wind_Speed
16 14 19 22 20 19 18 18 17 17 17 17 17 17 19 18 19 18 17 16 16 16 16 16 15 13 12 12 12 12 12 12 12 13 13 13 13 12 12 14 14 13 14 15 17 18 18 18 18 18 18 18 17 16 16 18 18 17 17 17 17 18 18 18 17 18 18 18 17 17 17 16 15 15 15 16 17 16 16 16 15 15 15 15 15
18 16 21 23 20 19 18 18 18 17 16 17 17 18 19 19 19 18 18 17 17 16 16 16 14 13 12 12 12 12 11 11 12 12 13 13 12 12 13 14 13 13 14 17 19 18 18 18 18 19 19 19 18 17 17 18 19 18 17 17 18 18 18 19 18 18 18 18 18 17 16 16 16 16 16 16 17 16 16 16 15 15 15 14 15
19 17 24 23 20 20 18 18 18 17 16 17 17 18 19 18 19 19 18 18 17 17 16 16 14 13 12 11 11 11 11 10 10 11 12 12 12 13 13 13 13 14 16 18 19 19 18 18 19 20 20 20 19 18 17 18 19 19 18 18 19 19 19 19 19 18 18 18 17 16 16 16 18 17 16 15 16 17 16 16 15 15 15 14 14
17 19 25 23 21 20 18 18 17 17 16 16 16 17 19 18 19 19 19 18 18 17 17 16 14 13 12 11 11 11 10 10 10 11 12 12 12 12 13 13 14 16 17 19 19 19 19 19 19 21 20 20 19 18 18 18 18 19 19 18 19 19 19 19 18 18 18 18 16 16 17 16 18 17 16 15 16 16 16 16 15 14 13 13 12
17 19 25 23 21 20 18 18 17 17 16 16 16 17 18 18 18 18 19 19 19 18 17 16 14 13 12 11 11 10 10 10 10 10 11 12 12 12 13 14 14 16 17 17 19 19 19 19 20 22 21 20 20 19 19 18 18 19 20 19 19 19 19 19 19 18 17 17 16 15 17 16 17 17 16 15 15 15 15 14 13 12 11 11 10
18 18 25 24 22 21 19 19 17 17 16 16 16 17 17 17 17 18 19 19 19 19 18 16 14 14 12 11 10 9 10 10 9 9 10 11 11 11 14 15 14 15 15 16 17 17 17 17 18 21 21 21 21 19 19 19 19 19 19 19 18 19 20 21 21 20 17 17 15 13 14 14 14 15 14 14 14 13 12 12 11 10 9 8 7
19 17 23 24 23 22 20 19 18 17 16 16 15 16 16 15 16 17 18 19 19 19 17 16 15 15 13 11 10 9 9 10 9 9 10 10 11 12 14 15 14 14 14 15 16 15 16 17 18 20 21 21 21 21 20 19 19 19 20 19 19 20 21 22 21 18 16 16 12 10 11 11 11 13 13 12 12 11 9 8 8 7 6 6 5
19 18 21 21 22 23 21 20 19 18 16 16 15 15 15 14 15 16 17 19 19 19 18 16 16 14 13 11 10 9 9 9 9 9 9 10 11 14 15 15 14 13 13 14 15 15 16 17 18 19 20 21 21 21 21 20 19 19 20 20 20 20 20 21 20 17 15 13 11 8 8 9 9 9 11 11 10 9 7 6 5 4 4 5 4
19 21 20 18 22 23 22 21 20 18 17 15 14 14 14 14 14 15 17 18 19 18 17 16 15 13 12 11 11 10 9 9 9 8 8 10 12 13 15 15 14 13 13 13 14 15 15 16 18 19 21 21 21 21 21 21 20 19 19 19 20 20 20 20 20 18 14 11 10 10 10 11 9 7 8 9 8 7 6 4 4 3 3 4 5
19 21 18 17 23 24 22 21 20 18 17 15 14 14 14 14 14 15 16 18 18 17 17 16 14 13 12 12 12 11 10 10 10 9 6 8 11 11 14 16 14 13 12 12 13 14 14 15 17 19 20 21 21 21 21 21 21 21 20 20 20 19 19 20 20 16 11 9 8 12 15 12 7 7 7 6 5 5 4 4 4 5 5 5 7
20 22 18 17 24 23 22 21 20 19 17 15 14 14 14 14 14 15 16 16 16 16 17 16 14 13 14 14 13 12 11 12 11 11 8 7 10 12 13 15 14 12 13 12 12 13 14 16 17 18 20 20 21 21 21 21 21 21 22 23 22 22 20 20 20 13 10 11 10 11 11 8 4 6 6 5 4 3 3 3 5 7 8 8 9
20 21 17 19 24 23 22 21 20 19 17 16 15 14 13 13 13 14 14 15 16 16 17 16 14 15 15 14 14 13 13 13 12 12 12 9 10 14 13 13 13 12 13 12 12 14 15 17 18 18 19 20 20 20 20 20 21 21 23 25 25 24 21 21 19 12 11 12 11 10 7 4 4 6 6 5 4 4 5 5 6 8 9 10 9
18 16 16 21 25 23 22 21 20 19 18 17 15 14 13 12 12 12 13 14 15 16 17 16 15 15 15 14 14 15 14 13 11 11 12 10 11 15 13 11 12 13 12 12 13 15 17 18 18 18 18 19 19 20 20 20 20 20 22 25 26 24 22 21 16 11 11 10 9 8 6 6 7 8 7 7 7 6 7 7 9 9 10 10 10
19 15 16 23 25 23 22 21 21 20 19 17 15 14 13 12 11 12 12 14 15 17 17 16 16 15 14 15 16 16 15 12 10 11 11 10 11 15 14 10 11 12 12 12 14 16 17 17 17 17 17 18 18 19 19 20 20 20 22 25 26 24 24 20 12 10 11 10 8 5 7 10 10 9 9 9 10 9 9 10 10 10 10 10 11
19 16 18 25 25 23 23 21 21 20 19 17 16 14 12 11 10 11 12 13 15 17 17 17 16 14 14 17 17 15 14 13 11 10 11 10 10 14 15 12 11 12 12 12 15 16 16 16 16 16 16 16 16 17 18 19 19 19 21 23 24 22 22 19 10 10 11 9 7 6 9 12 12 12 12 12 11 11 12 11 11 11 11 10 10
19 17 20 25 24 23 23 21 21 20 18 17 16 14 12 11 10 10 12 13 16 18 18 17 16 15 16 18 16 14 13 13 11 10 10 10 10 13 15 14 13 13 13 13 15 16 15 15 14 14 15 15 15 16 17 18 18 18 17 20 23 21 21 18 10 9 10 9 7 6 9 12 13 13 13 13 12 12 12 12 11 11 11 10 10
18 19 20 23 24 24 23 22 20 19 18 17 15 14 13 11 10 10 12 14 17 19 19 18 17 16 17 18 15 13 14 13 11 10 10 10 9 12 14 13 13 13 13 14 15 16 15 14 13 13 13 13 13 14 15 16 17 16 16 17 22 22 20 18 12 10 11 9 7 6 9 11 12 13 12 13 12 12 11 11 11 11 11 10 10
18 20 21 21 23 23 23 22 20 19 18 17 16 14 13 12 10 11 12 15 18 20 19 18 17 17 17 17 15 14 14 13 12 10 9 9 9 13 14 13 13 13 13 14 16 16 15 14 12 12 12 11 11 12 13 14 15 16 17 18 19 19 19 16 12 10 11 8 6 6 8 9 11 12 11 12 12 11 11 11 11 10 10 10 11
19 21 20 20 23 22 22 22 21 20 19 18 17 16 14 13 11 12 13 15 18 19 18 18 17 16 16 15 15 14 13 12 12 10 10 9 9 12 14 13 13 12 13 15 16 16 15 14 12 12 11 10 10 10 12 12 14 15 17 18 18 19 19 14 10 9 9 6 6 6 7 9 10 11 11 10 10 10 10 10 10 10 10 10 11
20 20 19 19 22 22 21 22 22 21 20 19 18 17 16 14 13 12 14 17 19 19 18 18 16 16 16 16 15 14 12 12 11 10 11 10 10 11 12 12 12 13 13 15 16 15 14 13 12 11 11 10 9 9 10 11 12 13 14 14 14 16 15 11 9 7 5 4 5 5 7 9 10 10 10 10 9 9 9 10 10 9 10 10 11
21 21 20 20 21 21 21 22 22 22 21 20 19 19 17 15 14 14 15 18 19 18 18 18 17 16 16 16 14 13 12 12 11 11 12 11 11 11 10 10 11 12 13 14 14 13 13 12 11 11 10 9 8 8 7 9 10 9 9 7 8 12 10 9 9 8 6 2 4 5 6 8 9 9 9 9 9 9 9 9 9 9 9 10 10
21 22 22 22 22 22 23 23 24 24 22 22 20 19 19 17 16 15 15 17 18 17 18 17 17 17 16 15 15 15 15 15 14 13 13 11 11 10 9 8 8 11 12 12 12 11 11 10 10 9 9 9 8 7 5 6 7 6 4 3 6 9 8 8 8 8 6 3 4 5 6 7 8 9 9 8 9 8 9 9 9 9 9 9 9
22 22 23 24 23 24 25 23 24 24 22 22 21 20 19 17 16 16 16 16 17 17 17 17 17 17 16 16 17 18 17 17 17 14 13 12 11 10 9 8 7 9 11 10 10 9 8 7 7 7 7 8 7 6 5 6 6 4 2 2 5 7 7 8 8 6 2 3 4 5 5 6 7 8 8 8 8 8 8 8 8 8 8 8 8
22 22 23 25 24 24 25 24 25 25 23 22 21 20 17 16 16 16 16 16 17 18 18 18 17 17 17 18 17 18 18 17 17 15 13 11 10 10 8 6 5 6 7 8 8 9 8 7 7 6 6 5 6 6 6 6 6 5 3 3 5 7 7 7 7 6 2 2 4 5 5 6 6 7 6 7 7 7 8 8 8 8 7 7 7
20 20 21 25 25 24 25 24 25 25 23 22 20 18 15 16 17 17 16 16 17 18 18 19 18 18 20 20 19 19 19 18 17 15 13 11 9 8 6 5 5 5 6 6 7 8 8 8 8 8 7 5 6 6 6 6 6 5 5 5 6 7 7 7 8 7 4 2 3 3 5 5 5 6 5 6 6 6 7 7 8 8 7 7 7
17 18 19 23 23 22 24 22 23 23 20 19 19 16 15 17 17 17 17 15 16 17 17 18 18 19 19 18 20 20 19 18 16 15 13 11 9 7 6 5 6 6 6 5 5 5 5 7 8 9 8 7 7 7 7 6 6 6 6 7 7 7 7 7 8 7 4 3 3 2 3 5 5 5 4 4 5 5 6 6 7 7 7 6 6
14 14 16 19 20 19 22 21 19 20 18 15 16 16 15 16 16 16 17 16 15 15 17 18 18 19 18 17 18 19 19 18 15 14 13 11 9 8 7 7 7 7 7 7 6 7 7 8 8 8 7 7 8 9 8 8 7 8 9 8 7 8 7 7 7 7 4 4 4 3 1 2 4 5 4 4 4 5 5 5 6 6 6 6 6
12 11 9 10 15 14 15 18 16 16 16 14 16 16 13 14 15 16 16 16 15 15 16 18 18 17 18 19 18 17 20 18 15 14 13 11 10 9 8 8 8 8 8 8 7 9 9 7 5 5 6 7 9 10 9 10 9 9 9 8 7 7 8 8 8 7 5 4 4 4 3 1 2 4 4 4 4 5 5 5 5 5 5 5 6
11 11 6 3 8 11 7 12 15 15 16 16 18 17 13 13 14 14 16 16 15 15 16 18 18 16 18 19 17 17 19 18 17 16 13 11 11 11 10 9 9 8 8 8 7 9 8 7 6 6 7 7 8 10 9 10 9 8 8 8 7 7 8 9 9 8 5 4 3 2 3 1 1 3 3 4 4 4 5 5 5 5 5 5 6
12 13 10 2 4 8 5 9 13 15 17 16 16 15 13 13 13 14 15 15 15 14 15 17 17 17 18 19 17 16 18 20 18 16 14 13 13 13 12 11 10 10 9 9 9 8 7 7 7 6 7 7 9 10 9 8 9 10 9 8 7 7 7 7 9 9 6 5 4 3 3 2 2 3 4 5 5 5 5 5 5 5 5 5 6
15 14 13 7 5 9 10 12 13 13 16 15 13 13 13 12 13 15 14 14 14 14 13 15 17 18 19 19 18 16 16 17 16 14 14 13 13 12 11 10 9 9 10 9 9 8 8 8 7 6 7 8 9 9 8 9 11 13 12 10 9 7 7 7 7 8 7 6 5 4 2 2 4 5 5 4 5 5 5 5 6 6 7 8 9
17 16 15 11 11 13 14 13 14 14 14 14 13 14 15 13 13 15 15 13 13 13 12 13 17 18 19 19 19 17 14 15 14 13 12 11 11 11 9 9 8 7 8 9 9 8 7 8 9 9 9 7 7 7 8 10 12 13 12 12 12 10 9 8 6 8 8 7 5 4 3 1 3 6 6 4 3 5 6 7 9 10 12 12 13
19 18 17 16 15 18 17 13 14 15 14 15 14 14 16 15 14 15 15 14 13 11 10 13 17 18 20 20 19 16 13 15 16 14 12 10 10 10 9 9 8 8 9 10 10 8 7 7 8 8 9 8 7 7 8 8 9 9 11 12 11 10 9 8 6 7 8 8 6 5 5 3 2 4 7 6 3 4 8 11 14 15 15 15 14
20 19 17 18 18 21 21 17 16 16 16 15 14 15 16 14 14 14 14 14 13 12 10 11 15 17 18 17 15 13 12 13 15 13 12 9 9 9 7 7 8 9 9 10 9 7 6 6 6 6 7 8 7 8 8 8 7 7 10 12 9 8 9 9 8 7 7 8 8 7 6 5 3 3 5 8 7 6 10 13 15 15 13 12 11
21 21 18 18 20 23 23 21 19 18 18 17 16 16 16 14 14 13 13 14 13 12 12 11 13 15 14 14 14 13 12 11 13 13 12 10 8 8 7 6 8 7 7 9 8 5 6 6 6 8 8 8 10 11 9 9 9 8 9 9 8 8 9 9 9 8 7 6 7 7 7 7 6 4 3 6 8 7 9 12 13 13 11 9 7
21 22 19 19 22 24 23 21 20 20 19 19 18 18 17 15 15 15 14 15 13 11 13 13 13 13 12 12 13 13 12 11 12 13 12 10 8 8 7 7 7 6 7 9 7 5 7 6 7 8 8 8 8 9 9 9 9 8 8 8 8 8 8 8 9 10 9 7 7 8 7 7 7 7 5 5 6 5 7 10 10 10 8 7 6
20 21 19 19 23 25 22 20 21 21 20 20 19 19 18 16 16 16 15 15 14 13 13 13 14 13 12 12 12 13 12 11 11 12 12 10 8 8 8 8 7 7 8 8 6 6 6 6 7 7 7 7 7 6 6 7 8 7 7 7 5 5 7 7 9 11 10 9 8 8 8 8 7 8 7 6 6 4 5 7 7 6 6 6 5
16 15 17 19 22 25 23 22 23 21 21 21 20 19 18 16 16 16 16 16 14 14 14 14 14 13 13 12 12 13 12 12 11 11 12 10 8 8 8 9 8 8 8 7 6 6 6 7 7 7 7 7 7 6 5 6 6 6 5 5 3 4 6 5 8 11 9 8 9 8 9 11 9 9 8 8 7 5 5 5 5 5 5 4 3
14 12 15 19 24 26 24 24 24 21 21 23 21 20 19 18 17 15 16 17 15 15 15 14 14 13 12 12 13 13 12 12 12 11 12 10 8 8 8 9 9 8 8 7 7 7 7 7 7 8 9 7 7 8 8 6 5 5 5 4 4 5 5 4 6 9 8 8 9 7 9 10 9 9 9 8 7 6 5 5 5 4 3 3 2
12 12 16 19 24 26 23 23 23 21 23 23 22 21 20 19 18 16 17 18 17 17 16 15 15 13 11 11 13 13 12 12 12 11 12 11 9 9 9 10 9 8 8 7 7 8 8 9 9 8 8 8 7 8 10 8 6 7 6 5 5 5 5 4 4 6 7 8 7 7 8 9 9 8 8 8 7 6 6 5 4 4 3 3 3
12 14 20 23 25 26 23 22 23 23 25 25 24 24 22 21 20 17 18 19 18 17 16 16 16 15 12 11 13 13 12 13 12 11 12 12 10 9 10 10 9 9 10 10 9 10 10 9 10 9 8 8 8 8 9 8 7 8 7 5 5 5 5 5 5 5 5 5 6 7 7 9 9 9 9 8 6 6 7 5 4 5 4 4 4
16 18 24 25 24 26 25 25 26 27 27 26 23 22 23 22 21 20 19 19 18 16 16 15 15 16 15 13 13 13 12 13 12 11 11 11 10 10 10 10 10 10 11 11 11 11 11 10 10 9 8 9 8 9 10 9 7 6 7 6 5 5 4 4 4 3 3 3 4 6 7 8 8 9 9 8 6 6 7 6 4 5 5 6 4
19 21 25 26 25 25 25 25 28 29 28 25 20 19 22 21 21 21 20 19 17 16 15 14 13 14 15 13 12 13 12 11 11 10 10 10 10 10 10 10 11 11 11 12 11 10 10 11 10 8 9 10 9 9 11 11 9 7 7 6 6 6 4 4 4 3 3 3 4 7 8 6 6 8 8 7 7 7 5 5 6 5 5 6 5
21 23 25 27 27 26 24 24 26 27 25 22 20 19 19 18 20 20 18 17 16 15 15 15 13 12 13 13 12 13 11 9 9 9 9 10 10 10 9 10 10 11 12 11 10 9 10 11 10 10 10 9 9 9 11 11 10 9 7 6 6 7 5 4 4 3 4 3 3 7 7 6 6 7 9 8 7 7 5 5 6 6 7 7 6
24 25 26 27 26 25 24 24 24 24 22 20 21 22 21 21 21 20 19 18 16 16 16 16 15 13 13 13 12 12 10 9 9 8 9 8 8 9 9 10 10 10 11 10 9 9 10 10 11 12 11 9 9 11 12 11 8 9 8 5 5 5 4 6 5 4 5 4 3 5 6 5 7 8 8 8 6 6 5 5 6 6 7 8 7
25 25 25 25 25 23 23 24 23 24 23 22 24 25 26 25 24 23 22 20 18 19 18 16 15 14 13 12 11 10 10 9 9 9 9 7 8 9 9 9 10 9 10 10 9 10 9 10 11 12 11 11 10 9 10 11 9 11 10 6 4 3 2 7 6 5 6 4 3 5 5 4 6 7 6 6 5 5 5 6 7 6 7 8 8
24 23 21 22 24 24 23 24 24 25 25 24 26 27 26 25 24 24 23 21 21 21 18 15 14 13 11 11 11 11 10 10 10 9 9 8 8 8 8 9 9 9 9 8 9 9 9 11 12 11 11 12 12 10 10 11 11 12 11 8 6 4 4 7 6 6 7 5 3 3 4 4 5 6 5 4 5 6 6 6 7 7 7 7 7
20 19 18 19 23 25 24 24 25 25 26 26 27 27 26 27 27 25 24 24 22 21 18 16 15 13 12 12 11 11 11 10 10 9 8 8 8 8 8 8 8 8 8 7 8 9 9 11 13 12 11 11 12 11 10 10 9 9 9 8 7 4 5 7 6 6 7 7 6 4 4 4 5 5 5 5 6 6 7 7 8 8 8 8 7
16 17 16 17 22 25 25 26 25 25 26 25 27 27 26 27 27 25 24 23 21 19 18 16 15 15 15 14 12 11 11 11 10 9 9 9 9 9 8 8 8 8 8 8 9 9 9 10 11 11 11 12 11 10 9 9 9 8 6 6 6 4 4 6 5 5 6 8 8 7 6 6 5 6 6 6 6 7 8 8 8 9 10 10 8
20 19 16 15 19 21 24 26 25 25 25 26 26 27 26 25 24 23 21 20 19 19 18 17 15 16 16 14 13 12 12 11 11 10 9 9 9 9 9 8 7 7 8 9 9 9 9 9 10 10 11 11 11 12 12 10 8 7 5 5 7 6 6 7 5 4 6 7 8 9 9 8 7 7 7 6 6 7 9 10 9 8 8 9 8
26 24 20 19 18 19 21 25 25 24 24 25 27 27 26 23 22 22 20 18 19 20 20 19 17 16 15 14 13 12 11 11 12 11 9 9 10 10 9 9 8 8 8 8 8 8 9 9 10 11 11 10 10 11 13 12 9 7 6 7 8 7 7 7 6 7 8 8 10 10 10 9 9 9 8 7 7 7 9 9 9 9 9 8 6
Wind_Direction
155 185 186 171 168 163 157 151 151 152 155 156 154 156 159 162 163 162 163 162 156 153 149 146 147 144 137 129 123 124 133 135 130 135 140 142 143 144 139 134 127 120 118 115 110 104 98 96 97 94 92 93 100 105 98 104 110 105 103 102 105 107 106 105 103 99 93 90 89 89 89 88 89 94 97 98 97 94 93 92 90 88 86 85 85
153 173 183 172 167 164 157 153 153 154 157 158 158 160 161 165 165 164 165 164 159 156 154 152 153 148 141 135 126 122 130 134 134 139 140 142 146 145 138 132 127 126 125 121 114 105 101 99 98 95 92 94 98 99 94 99 108 108 105 103 104 107 107 105 102 97 92 87 82 83 87 90 90 93 95 96 97 95 93 91 91 90 86 84 83
152 163 176 169 166 164 158 155 153 154 157 159 161 162 164 166 166 166 167 165 161 160 159 157 157 152 147 140 131 127 129 133 138 142 142 141 146 144 137 136 133 131 126 120 116 108 104 101 99 96 93 93 97 98 95 96 103 107 106 102 103 105 108 107 104 100 96 87 82 84 86 90 94 95 96 97 99 98 94 92 91 89 86 85 83
152 161 172 166 164 163 159 155 152 153 156 159 162 164 167 167 167 167 168 167 165 165 163 162 163 158 152 146 138 135 133 135 140 144 145 143 146 144 137 137 133 128 122 119 119 113 106 103 101 98 94 93 95 98 99 99 101 105 107 104 103 106 108 106 102 100 97 89 80 83 88 92 97 99 98 99 100 99 95 93 90 87 87 85 84
145 161 168 164 163 162 158 154 151 151 154 158 160 164 167 168 168 168 170 170 169 169 168 169 168 162 159 154 146 144 142 138 141 146 146 145 147 143 139 135 128 126 121 121 125 118 108 106 104 100 97 95 94 97 102 104 103 105 108 108 106 108 107 101 94 88 86 84 76 78 88 94 98 100 100 100 101 100 96 92 87 87 87 85 85
146 158 162 163 162 160 157 153 149 149 151 153 155 161 166 169 170 171 172 173 173 173 172 173 170 166 164 161 155 151 147 141 141 145 143 144 148 147 143 133 128 131 125 126 131 123 113 111 105 101 100 97 96 96 100 105 106 107 109 111 111 111 107 98 87 79 75 72 70 78 87 94 101 102 101 102 102 98 97 95 93 95 90 85 83
150 153 156 164 162 158 155 152 147 147 147 147 150 155 162 166 169 173 175 177 176 175 175 174 173 170 168 166 161 155 150 143 143 147 146 141 149 150 139 133 135 136 128 127 130 123 116 115 108 102 101 99 98 96 98 102 107 110 112 114 115 114 107 96 85 77 73 69 71 79 83 91 103 111 111 108 106 97 94 93 90 86 80 78 76
149 149 152 161 160 156 153 151 146 146 146 145 146 148 153 157 166 173 177 179 176 176 177 177 177 173 169 167 161 156 152 147 146 149 147 140 147 148 138 139 142 132 123 122 123 120 116 115 109 105 103 101 100 98 98 99 105 111 115 117 118 120 112 102 94 80 70 76 84 78 72 84 97 121 124 114 110 98 90 90 86 72 56 63 70
146 149 152 158 158 154 152 151 147 148 146 145 144 143 144 148 159 169 175 178 178 179 179 180 179 174 169 165 160 155 153 146 141 143 148 141 140 145 144 143 138 126 123 121 121 122 120 116 112 109 106 104 102 100 99 98 101 108 116 119 121 121 110 102 95 81 78 87 92 90 92 96 96 118 132 120 114 102 91 84 83 80 64 60 59
146 150 154 158 157 153 153 151 150 152 148 146 144 142 141 144 152 161 172 177 180 181 180 181 176 173 168 164 162 157 155 145 138 142 152 146 138 145 146 138 133 130 129 124 124 126 125 121 116 112 108 106 104 103 102 101 100 103 112 116 117 111 97 89 80 73 85 92 98 121 127 129 116 112 141 143 132 122 95 61 57 70 74 67 59
149 154 157 158 155 154 154 154 155 154 151 149 147 144 142 144 149 157 168 175 180 180 180 179 175 174 168 167 166 159 155 145 143 146 149 160 154 151 145 135 136 139 136 132 131 131 129 125 118 113 109 106 104 104 104 104 103 103 108 111 110 101 91 84 78 71 81 84 93 121 136 156 136 103 132 144 135 120 86 61 60 66 70 71 68
155 156 167 165 154 155 158 159 158 156 154 153 150 148 146 145 148 155 164 172 177 179 179 178 178 175 169 168 165 157 150 145 148 149 154 175 170 153 147 142 144 146 142 141 139 136 131 125 118 114 110 106 104 103 104 105 105 105 107 107 102 95 88 83 81 80 81 85 94 107 115 131 113 94 102 108 100 83 77 70 67 71 73 75 76
156 155 174 168 155 159 161 162 161 160 159 158 156 152 150 148 147 153 161 169 175 178 180 181 180 175 171 170 165 156 150 150 149 149 156 173 171 151 144 154 158 153 149 148 144 138 131 125 121 117 112 108 106 104 104 105 106 108 108 105 100 95 89 82 83 90 88 93 102 112 114 103 99 91 90 93 83 70 68 68 72 77 77 76 76
157 160 172 164 159 162 163 166 165 165 165 163 162 158 156 151 147 152 159 168 176 179 180 180 179 175 173 171 165 156 152 152 145 146 153 162 170 151 144 163 165 155 156 152 143 140 135 130 126 120 116 112 108 108 107 107 108 110 110 106 101 97 92 84 83 92 90 96 100 104 108 102 98 92 90 86 78 73 70 70 75 78 76 74 72
160 163 168 165 164 163 165 170 170 170 169 168 165 162 160 154 149 152 160 168 174 178 177 176 175 170 168 167 161 154 151 149 146 151 153 156 169 158 153 164 165 160 162 154 145 144 140 135 131 125 121 116 112 111 110 109 110 114 116 109 103 99 97 95 92 92 89 93 95 94 98 99 97 95 93 88 85 83 80 80 79 78 77 75 72
162 162 166 169 167 165 168 172 173 173 171 171 167 165 162 157 153 154 163 166 170 172 173 173 169 163 160 162 157 151 150 149 152 158 155 155 167 162 158 163 171 174 169 158 151 148 145 139 135 130 124 121 117 112 111 111 112 115 118 112 108 106 102 100 97 92 92 86 80 85 98 101 100 100 99 97 96 92 90 88 86 85 84 82 78
165 161 164 170 170 168 170 172 175 173 172 171 167 168 165 160 155 157 164 162 164 167 170 170 166 161 158 158 156 154 154 152 159 167 161 157 164 161 160 170 181 184 173 162 156 151 148 142 135 131 126 125 121 113 111 110 111 112 113 114 113 111 106 102 100 97 95 92 98 108 105 106 106 106 105 103 102 99 96 93 93 92 90 89 85
167 162 166 173 172 172 172 173 174 172 171 170 169 169 166 162 158 158 162 161 162 165 168 168 165 163 159 161 161 158 157 156 166 173 166 160 163 165 169 181 187 186 175 163 159 155 150 145 136 131 128 127 123 115 112 111 110 109 108 109 107 102 96 92 91 92 93 106 144 141 115 111 109 107 105 104 104 103 101 100 98 95 94 94 90
168 168 173 174 171 173 174 173 172 172 172 172 171 169 167 163 159 161 162 161 165 168 169 168 168 166 164 166 163 159 158 162 172 175 171 166 162 168 180 189 190 189 180 167 162 160 156 149 139 130 129 129 128 120 115 114 111 110 109 107 102 93 84 84 89 92 101 131 161 141 126 123 113 108 104 102 102 100 100 100 97 92 92 92 91
171 175 176 173 172 174 175 175 175 177 175 175 173 168 166 162 158 161 163 164 167 170 169 170 171 168 169 166 159 160 164 170 174 174 175 170 162 169 184 193 196 195 189 177 166 163 162 152 142 133 130 130 129 126 120 116 113 116 114 108 102 91 83 91 102 98 106 155 159 134 132 123 114 111 105 102 99 96 95 92 91 89 86 87 88
176 179 177 174 175 176 176 177 179 180 179 178 175 169 162 158 159 161 163 165 167 169 169 171 173 172 171 163 158 164 169 174 172 172 175 172 172 177 184 195 203 203 197 186 176 170 167 159 146 137 132 130 127 126 123 118 116 118 115 103 90 84 82 92 97 90 88 140 168 135 122 117 114 110 103 102 99 95 96 95 95 92 88 87 85
178 180 180 178 179 179 179 181 181 181 183 179 174 169 162 158 158 160 161 163 166 169 170 172 175 175 171 166 167 170 172 174 169 170 172 171 179 182 185 196 204 208 204 193 187 181 174 166 155 148 140 135 130 124 130 129 118 114 111 87 86 95 99 97 97 99 102 151 171 141 120 115 109 104 101 100 98 98 99 99 99 96 92 89 85
181 182 181 181 184 184 184 186 184 181 180 176 173 169 163 159 159 162 160 163 169 170 169 172 175 172 170 170 171 172 175 175 167 167 169 168 177 182 187 200 204 204 205 196 192 192 188 180 170 164 152 147 145 141 159 153 127 125 120 84 107 117 112 106 106 103 134 178 148 148 132 119 108 104 104 100 100 101 100 100 97 96 95 92 90
185 184 184 185 187 188 187 186 184 182 179 174 171 168 163 161 163 165 162 166 171 169 168 171 174 171 174 174 170 174 178 174 168 167 166 166 176 182 185 192 189 186 195 195 194 201 202 203 200 192 182 170 168 167 179 169 151 156 141 122 124 117 113 116 120 115 161 173 137 159 142 125 118 111 109 104 103 100 99 99 96 95 94 92 91
190 188 188 191 191 190 188 186 183 182 179 172 166 163 162 162 165 167 166 171 171 172 174 176 178 177 184 179 167 175 178 171 168 168 163 165 174 170 164 163 160 158 171 181 190 203 209 217 220 216 208 190 189 191 189 184 180 170 138 148 145 128 131 136 144 148 161 134 117 160 148 136 128 120 121 116 109 102 98 97 97 96 94 93 92
197 195 193 196 194 189 187 186 182 178 174 166 158 156 159 158 166 169 165 173 174 177 182 182 184 184 191 183 164 169 174 169 167 166 163 166 165 149 148 151 145 143 149 165 177 179 189 210 224 230 221 194 199 206 195 193 199 179 155 169 161 140 146 149 163 166 145 102 94 125 153 148 131 119 123 129 127 115 106 101 99 98 98 98 94
204 206 204 204 195 185 188 184 173 171 168 160 151 152 162 160 167 171 164 174 178 180 185 185 188 186 192 186 167 163 164 166 163 162 164 161 148 139 158 155 149 152 151 164 174 162 172 199 218 227 218 197 207 217 204 199 205 189 172 175 169 155 156 153 162 160 138 115 93 70 78 140 135 121 112 133 148 136 125 113 105 102 99 99 95
212 219 234 226 196 183 187 180 166 169 169 168 163 158 171 170 171 177 173 180 182 182 189 190 192 188 188 185 172 161 157 160 162 163 160 151 145 150 167 160 158 169 164 165 173 173 178 194 205 200 202 199 212 226 210 197 201 192 178 177 175 168 160 157 165 163 157 141 108 77 50 57 123 118 103 113 142 149 144 130 120 116 106 101 98
213 213 245 306 186 179 167 161 165 179 177 173 171 166 179 179 174 179 178 181 183 184 190 194 196 190 185 180 172 162 157 161 166 164 157 157 163 162 166 163 162 170 167 161 168 177 176 181 184 183 199 200 211 228 211 196 198 189 186 183 179 179 166 170 174 165 171 163 149 115 66 38 67 79 82 90 112 135 145 143 136 128 114 105 100
209 203 216 282 165 178 176 168 172 178 177 173 172 174 185 182 176 179 178 178 177 182 188 190 191 188 182 177 171 165 165 168 165 160 162 171 174 170 172 172 169 170 169 168 170 173 170 177 180 182 197 197 206 215 199 197 201 186 187 188 186 188 174 188 182 168 189 184 173 167 97 86 57 49 55 67 83 109 131 142 137 125 111 100 94
207 200 213 228 160 177 194 190 186 183 179 178 182 186 186 180 182 184 180 177 172 176 188 190 185 183 182 176 172 171 169 164 156 156 165 170 171 170 171 170 170 174 173 174 172 166 168 176 175 183 195 200 214 216 195 200 206 193 187 186 193 191 176 196 181 165 196 191 178 190 135 90 71 55 43 49 72 100 123 131 126 115 105 100 96
205 200 206 196 159 180 199 190 191 196 189 188 193 190 181 178 187 186 180 176 165 165 179 184 179 177 180 182 180 177 165 153 153 157 157 159 163 160 159 161 163 173 173 173 172 166 172 180 177 183 186 192 213 212 204 210 211 204 195 193 200 194 186 209 194 164 193 200 193 202 186 142 77 61 46 47 68 96 118 127 121 114 107 103 99
205 205 206 192 173 184 196 193 193 195 193 194 194 189 181 180 186 186 182 174 159 162 174 172 173 177 183 185 180 173 160 157 162 156 149 156 162 157 160 163 161 174 179 174 174 167 174 188 181 183 184 189 204 199 207 217 209 203 200 202 205 194 187 213 214 178 189 201 200 206 193 173 112 66 49 50 64 95 116 125 121 117 113 108 103
208 208 205 199 191 191 192 193 195 194 194 194 192 191 189 188 191 190 186 174 162 167 178 173 171 176 183 179 170 166 160 165 167 155 149 159 162 158 160 167 178 189 186 174 170 168 180 191 183 192 193 188 197 199 204 200 193 197 198 201 205 200 194 197 199 187 197 203 192 193 180 163 147 93 54 62 78 96 115 126 126 121 114 107 103
215 212 205 203 196 194 190 187 194 199 198 196 192 192 192 195 196 192 184 174 168 170 177 183 172 167 173 170 168 170 164 168 171 162 156 158 162 160 157 179 194 184 176 170 162 173 189 188 197 209 200 192 201 206 207 198 197 203 194 193 198 209 213 206 205 198 197 205 195 190 176 166 161 140 95 81 89 93 109 125 128 123 116 109 105
217 217 211 206 195 192 185 182 192 198 199 196 192 192 193 197 197 193 185 174 171 177 181 186 173 163 169 171 175 173 165 171 175 171 163 156 164 165 168 194 191 163 171 173 160 180 194 186 205 214 202 207 213 201 202 204 208 215 200 203 211 214 218 211 215 209 200 209 208 193 162 147 160 157 141 119 111 104 114 123 123 120 119 117 118
218 220 214 207 195 189 186 189 195 196 197 194 193 195 192 195 200 193 186 178 175 179 182 184 174 165 171 179 180 170 166 175 175 172 162 156 172 170 183 204 184 171 183 173 163 189 199 193 200 210 204 212 222 201 194 197 201 209 200 204 215 213 218 212 211 212 213 218 204 177 145 137 166 172 151 141 139 133 131 129 124 120 122 123 124
223 216 212 212 201 191 191 199 200 196 195 194 196 198 192 194 202 193 185 184 180 177 180 185 177 168 175 183 180 167 168 177 173 175 166 161 176 172 189 203 182 185 190 168 175 190 192 199 197 203 202 202 218 210 198 198 191 197 202 211 207 190 207 209 202 204 209 215 199 172 147 141 159 165 157 156 146 136 144 140 129 120 119 121 115
221 203 205 209 202 194 192 197 199 196 195 196 197 197 195 196 197 191 187 186 182 178 183 188 176 168 179 184 178 170 173 178 173 181 178 168 181 182 190 195 184 193 187 171 190 192 187 196 193 203 204 197 211 205 199 201 184 192 211 214 197 177 180 179 194 202 205 212 203 180 151 143 151 153 158 165 147 139 145 132 121 114 109 104 83
207 195 195 195 194 190 189 194 199 199 196 197 197 194 195 196 190 187 191 189 184 181 185 189 175 168 180 182 178 175 178 182 179 188 188 178 182 192 195 192 189 193 184 180 195 195 194 198 198 206 204 197 208 208 204 200 184 196 205 188 177 178 179 184 205 211 212 216 201 172 147 148 153 146 149 152 141 142 141 127 116 108 93 74 63
189 193 193 192 191 187 187 193 199 204 201 199 198 195 195 196 190 189 195 190 182 181 185 189 180 173 176 178 181 181 186 191 186 192 199 193 189 199 207 196 187 194 192 188 193 200 202 202 205 205 197 198 208 208 204 200 194 198 197 182 181 184 178 184 210 217 209 205 191 169 145 142 145 142 143 140 141 147 143 146 132 113 99 68 52
185 190 191 194 192 188 194 197 201 206 203 200 197 193 195 196 194 196 197 189 184 186 187 186 182 178 178 182 185 184 193 200 195 199 206 204 200 206 214 200 191 201 203 198 203 216 210 198 204 203 195 196 199 207 207 200 201 200 189 177 171 177 173 170 189 202 186 176 172 161 139 126 134 144 146 140 150 158 147 147 130 109 99 82 71
189 191 189 192 190 191 200 204 205 204 200 200 196 192 196 197 200 202 195 190 189 188 186 184 179 184 188 186 185 186 193 201 201 207 209 206 206 207 209 206 205 205 205 208 210 219 210 195 195 196 201 199 191 205 211 203 203 197 190 184 173 172 164 164 178 164 154 144 130 138 135 128 132 146 154 148 152 157 141 129 123 112 103 96 97
196 196 189 191 192 194 203 208 209 205 199 200 196 193 193 193 202 202 190 188 185 178 183 182 173 183 190 182 185 192 192 196 201 207 204 203 208 208 205 208 214 205 203 212 213 213 208 197 191 193 202 201 192 205 213 212 202 185 189 202 200 199 179 168 184 164 144 133 114 126 128 135 137 149 163 152 139 141 127 121 132 132 128 131 121
201 197 187 190 195 198 203 205 208 207 202 200 198 194 187 187 195 189 181 182 178 179 185 180 175 182 184 178 186 194 192 193 196 194 194 198 204 209 209 209 214 207 199 204 209 212 206 197 198 200 198 192 197 210 211 214 202 184 201 209 203 227 200 164 163 140 137 148 150 134 127 139 146 154 163 152 144 144 132 126 131 125 122 126 118
198 196 189 191 195 197 201 202 205 208 205 201 202 199 190 190 192 184 180 179 177 186 188 180 181 184 180 179 183 189 191 190 189 187 190 196 198 205 209 206 209 205 196 196 204 210 203 197 203 205 199 190 197 212 212 215 207 195 210 215 210 251 170 161 159 133 133 141 153 149 139 145 154 156 155 152 146 129 119 122 120 117 116 115 114
189 191 191 194 199 199 199 204 207 208 206 204 205 201 192 192 194 190 188 184 183 189 187 182 184 178 173 177 180 183 186 186 187 189 193 192 190 196 199 197 200 200 198 197 202 209 202 198 202 205 204 196 196 208 212 216 211 200 207 219 226 235 182 175 166 141 139 139 146 153 146 152 159 155 148 147 144 131 127 126 118 113 105 96 91
178 188 193 197 205 205 202 205 209 209 208 207 204 199 193 191 191 191 191 188 188 189 184 182 182 173 171 176 178 180 180 183 188 187 191 191 185 187 189 190 195 195 198 199 198 204 202 202 206 205 206 206 204 211 212 210 214 213 215 222 227 232 209 195 186 174 161 144 141 145 147 153 148 141 136 139 145 126 99 102 114 122 123 115 103
179 198 202 200 207 209 207 207 209 210 208 206 203 200 196 189 185 186 187 184 184 188 183 179 179 175 175 175 173 175 177 180 184 184 188 189 187 188 187 190 196 193 194 200 200 199 200 208 214 210 209 212 209 214 214 203 210 225 230 228 221 209 199 198 201 202 173 146 149 156 156 156 144 137 134 134 140 124 116 134 142 143 145 140 131
197 203 202 203 210 212 211 210 211 211 209 205 201 199 195 191 187 184 181 179 181 183 177 172 176 177 175 172 169 171 176 180 185 188 189 191 189 189 188 190 200 199 192 198 203 202 204 211 214 213 215 216 214 216 217 207 204 218 228 219 211 200 190 188 188 189 171 155 160 165 163 161 152 146 139 129 134 135 145 155 144 132 133 125 126
201 203 201 203 210 214 214 214 214 213 210 205 201 198 195 194 191 185 179 178 181 179 172 169 175 174 169 168 167 167 171 180 187 185 184 190 189 187 189 191 200 206 200 199 203 204 208 214 216 216 216 217 220 221 222 218 205 202 215 210 203 206 200 190 188 192 186 167 158 161 162 157 146 144 139 129 136 142 141 141 135 132 126 121 138